User: anonymous   Login
Location: Unspecified
(0.0000°N, 0.0000°E)
Time: 09:50:45
(UTC+02:00)
Language:

SJ-6B - Orbit

View from above orbital plane
View from above orbital plane
View from above satellite
View from above satellite

Ground track
Ground track

The orbit data is extracted from the following two-line orbital elements,

1 28415U 04035C   18147.84323572  .00000629  00000-0  45771-4 0  9992
2 28415  97.7081 183.0790 0052726  32.2292 328.2138 15.06488507750467
Epoch (UTC): 27 May 2018 20:14:15
Eccentricity: 0.0052726
inclination: 97.7081°
perigee height: 510 km
apogee height: 583 km
right ascension of ascending node: 183.0790°
argument of perigee: 32.2292°
revolutions per day: 15.06488507
mean anomaly at epoch: 328.2138°
orbit number at epoch: 75046

The dashed part of the orbit path shows where the satellite is in the earth's shadow,  

DLR